This demonstration page uses our WeatherBlox Daily Observations layout. Learn more.

40.92945, -100.16068

Hourly Observations for June 3, 2015

Temp ( °F °C ) Dew Point ( °F °C ) Humidity (%) Winds ( mph kmh ) Pressure ( in mb ) Visibility ( mi km ) Precip ( " mm )
12:15 am 00:15 Clear 72 22 66 19 83 83 ESE 10 17 29.71 1006 10 16.0934 N/A
12:35 am 00:35 Clear 72 22.1 66 19.1 83 83 ESE 12 19 29.71 1006 10 16.0934 N/A
12:55 am 00:55 Partly Cloudy with Nearby Thunderstorms 70 21 56 13.6 63 63 NNE 18 30 29.77 1008 10 16.0934 N/A
1:15 am 01:15 Mostly Cloudy with Nearby Thunderstorms 67 19.7 56 13.1 66 66 NNE 18 30 29.8 1009 10 16.0934 N/A
1:35 am 01:35 Cloudy with Nearby Thunderstorms 65 18.1 56 13.2 73 73 NE 16 26 29.8 1009 10 16.0934 N/A
1:55 am 01:55 Mostly Cloudy 63 17 57 13.8 82 82 NE 12 19 29.77 1008 10 16.0934 N/A
2:15 am 02:15 Mostly Cloudy 63 17.2 57 14 82 82 E 15 24 29.77 1008 10 16.0934 N/A
2:35 am 02:35 Partly Cloudy 63 17.1 57 14 82 82 E 13 20 29.8 1009 10 16.0934 N/A
2:55 am 02:55 Partly Cloudy 63 17.2 57 13.8 81 81 E 13 20 29.8 1009 10 16.0934 N/A
3:15 am 03:15 Partly Cloudy 62 16.5 57 14 85 85 E 9 15 29.77 1008 10 16.0934 N/A
3:35 am 03:35 Clear with Thunderstorms 62 16.5 58 14.2 86 86 SSE 3 6 29.8 1009 10 16.0934 N/A
3:55 am 03:55 Mostly Cloudy with Thunderstorms 61 16.3 58 14.5 89 89 NW 20 31 29.88 1012 7 11.26538 0.01 0.254
4:15 am 04:15 Cloudy with Nearby Thunderstorms 62 16.6 58 14.6 88 88 NNE 22 35 29.83 1010 7 11.26538 0.06 1.524
4:35 am 04:35 Cloudy with Light Rain 62 16.9 58 14.5 86 86 N 17 28 29.88 1012 10 16.0934 0.07 1.778
4:55 am 04:55 Cloudy with Nearby Thunderstorms 61 16.1 58 14.2 89 89 NNE 17 28 29.88 1012 10 16.0934 0.09 2.286
5:15 am 05:15 Cloudy with Thunderstorms 61 16 57 13.8 87 87 ENE 8 13 29.88 1012 7 11.26538 0.04 1.016
5:35 am 05:35 Cloudy 61 15.9 57 14.1 89 89 E 13 20 29.85 1011 5 8.0467 0.14 3.556
5:55 am 05:55 Partly Cloudy with Light Rain 60 15.8 58 14.3 91 91 ESE 13 20 29.83 1010 10 16.0934 0.17 4.318
6:15 am 06:15 Mostly Cloudy 60 15.8 58 14.2 90 90 ESE 10 17 29.83 1010 10 16.0934 N/A
6:35 am 06:35 Mostly Cloudy 61 16.2 58 14.3 89 89 ESE 13 20 29.83 1010 10 16.0934 N/A
6:55 am 06:55 Partly Cloudy 62 16.5 58 14.2 86 86 ESE 12 19 29.8 1009 10 16.0934 0 0
7:15 am 07:15 Partly Cloudy 62 16.5 58 14.4 87 87 ESE 13 20 29.83 1010 10 16.0934 N/A
7:35 am 07:35 Partly Cloudy 62 16.8 58 14.4 86 86 ESE 14 22 29.8 1009 10 16.0934 N/A
7:55 am 07:55 Sunny 62 16.6 58 14.5 88 88 SE 13 20 29.77 1008 10 16.0934 N/A
8:15 am 08:15 Sunny 63 17.3 58 14.7 85 85 SE 17 28 29.77 1008 10 16.0934 N/A
8:35 am 08:35 Sunny 64 17.6 58 14.7 83 83 SE 12 19 29.8 1009 10 16.0934 N/A
8:55 am 08:55 Sunny 64 17.9 60 15.4 85 85 N 12 19 29.85 1011 10 16.0934 N/A
9:15 am 09:15 Sunny 65 18.5 61 16.2 87 87 NNW 7 11 29.88 1012 10 16.0934 0.01 0.254
9:35 am 09:35 Sunny 65 18.1 60 15.5 85 85 Calm 29.88 1012 10 16.0934 0.01 0.254
9:55 am 09:55 Sunny 66 19.1 59 15.2 78 78 Calm 29.83 1010 10 16.0934 0.01 0.254
10:15 am 10:15 Sunny 68 20 61 15.9 77 77 Calm 29.83 1010 10 16.0934 N/A
10:35 am 10:35 Sunny 71 21.4 62 16.6 74 74 S 12 19 29.83 1010 10 16.0934 N/A
10:55 am 10:55 Sunny 70 21.3 61 16.2 73 73 ESE 5 7 29.83 1010 10 16.0934 N/A
11:15 am 11:15 Sunny 72 22.1 59 15 64 64 Calm 29.85 1011 10 16.0934 N/A
11:35 am 11:35 Sunny 72 22.2 60 15.4 65 65 Calm 29.85 1011 10 16.0934 N/A
11:55 am 11:55 Sunny 73 22.9 60 15.3 62 62 N 5 7 29.83 1010 7 11.26538 N/A
12:15 pm 12:15 Sunny 74 23.3 61 16.1 64 64 N 5 7 29.88 1012 10 16.0934 N/A
12:35 pm 12:35 Sunny 73 22.9 61 16.3 66 66 NW 8 13 29.88 1012 10 16.0934 N/A
12:55 pm 12:55 Sunny 74 23.5 61 16.1 63 63 Calm 29.85 1011 10 16.0934 0 0
1:15 pm 13:15 Sunny 75 24 63 17 65 65 N 7 11 29.85 1011 10 16.0934 N/A
1:35 pm 13:35 Sunny 76 24.2 63 17 64 64 N 8 13 29.85 1011 10 16.0934 N/A
1:55 pm 13:55 Partly Cloudy 75 23.7 63 17.3 67 67 N 6 9 29.83 1010 10 16.0934 N/A
2:15 pm 14:15 Partly Cloudy 76 24.4 65 18.6 70 70 NNW 8 13 29.85 1011 10 16.0934 N/A
2:35 pm 14:35 Partly Cloudy 76 24.6 63 17.1 63 63 Calm 29.83 1010 10 16.0934 N/A
2:55 pm 14:55 Partly Cloudy 76 24.4 63 17.2 64 64 N 6 9 29.83 1010 10 16.0934 N/A
3:15 pm 15:15 Mostly Cloudy 77 24.9 64 17.8 65 65 NE 5 7 29.83 1010 10 16.0934 N/A
3:35 pm 15:35 Mostly Cloudy 76 24.5 62 16.5 61 61 Calm 29.83 1010 10 16.0934 N/A
3:55 pm 15:55 Partly Cloudy 78 25.5 62 16.8 59 59 NE 5 7 29.83 1010 10 16.0934 N/A
4:15 pm 16:15 Sunny 78 25.5 64 17.5 61 61 E 6 9 29.83 1010 10 16.0934 N/A
4:35 pm 16:35 Sunny 78 25.6 63 17 59 59 ENE 9 15 29.83 1010 7 11.26538 N/A
4:55 pm 16:55 Hazy 78 25.5 62 16.6 58 58 ENE 7 11 29.77 1008 3 4.82802 N/A
5:15 pm 17:15 Sunny 78 25.5 61 16.3 57 57 NE 6 9 29.77 1008 10 16.0934 N/A
5:35 pm 17:35 Sunny 78 25.5 62 16.6 58 58 NE 7 11 29.77 1008 10 16.0934 N/A
5:55 pm 17:55 Sunny 78 25.5 62 16.7 58 58 E 7 11 29.77 1008 10 16.0934 N/A
6:15 pm 18:15 Partly Cloudy 76 24.7 62 16.6 61 61 ENE 10 17 29.8 1009 10 16.0934 N/A
6:35 pm 18:35 Partly Cloudy 77 24.9 62 16.9 61 61 ENE 9 15 29.8 1009 7 11.26538 N/A
6:55 pm 18:55 Sunny 76 24.7 62 16.6 61 61 ENE 8 13 29.8 1009 10 16.0934 N/A
7:15 pm 19:15 Sunny 76 24.3 62 16.5 62 62 E 10 17 29.8 1009 10 16.0934 N/A
7:35 pm 19:35 Sunny 75 23.7 61 16.2 63 63 ENE 10 17 29.8 1009 10 16.0934 N/A
7:55 pm 19:55 Sunny 75 23.7 61 16.3 63 63 ENE 10 17 29.8 1009 10 16.0934 N/A
8:15 pm 20:15 Sunny 73 23 61 16.2 66 66 ENE 9 15 29.8 1009 10 16.0934 N/A
8:35 pm 20:35 Sunny 72 22.2 61 16.1 68 68 E 9 15 29.83 1010 10 16.0934 N/A
8:55 pm 20:55 Sunny 71 21.4 61 16.3 73 73 ENE 8 13 29.83 1010 10 16.0934 N/A
9:15 pm 21:15 Clear 69 20.8 61 16.1 75 75 ENE 8 13 29.83 1010 10 16.0934 N/A
9:35 pm 21:35 Clear 67 19.6 61 16 80 80 ENE 7 11 29.85 1011 10 16.0934 N/A
9:55 pm 21:55 Clear 66 18.7 61 16.1 85 85 ENE 7 11 29.88 1012 10 16.0934 N/A
10:15 pm 22:15 Clear 65 18.6 61 16.1 85 85 E 8 13 29.88 1012 10 16.0934 N/A
10:35 pm 22:35 Partly Cloudy 66 18.7 61 16.1 85 85 E 7 11 29.88 1012 10 16.0934 N/A
10:55 pm 22:55 Partly Cloudy 66 18.7 61 16.2 85 85 E 6 9 29.88 1012 10 16.0934 N/A
11:15 pm 23:15 Partly Cloudy 66 18.8 62 16.5 87 87 E 7 11 29.88 1012 10 16.0934 N/A
11:35 pm 23:35 Mostly Cloudy 66 19.1 62 16.7 86 86 E 8 13 29.88 1012 10 16.0934 N/A
11:55 pm 23:55 Mostly Cloudy 66 18.9 62 16.6 87 87 ENE 5 7 29.88 1012 10 16.0934 N/A

Powered by AerisWeather